This is the latest recevied weather packets stored in our database for station/object SP6PGH-13. If no packets are shown the sender has not sent any weather packets the latest 10 day(s).
| Time | Temp. | Humidity | Pressure | Rain* | Wind** | Luminosity | Snow |
|---|---|---|---|---|---|---|---|
| 1777455603 | 9.44° C | 28% | 1014.6 hPa | - | - | 687 W/m² | - |
| 1777454702 | 9.44° C | 31% | 1014.6 hPa | - | - | 663 W/m² | - |
| 1777453801 | 9.44° C | 29% | 1014.6 hPa | - | - | 646 W/m² | - |
| 1777452900 | 9.44° C | 28% | 1014.6 hPa | - | - | 619 W/m² | - |
| 1777451999 | 8.89° C | 30% | 1014.6 hPa | - | - | 596 W/m² | - |
| 1777451098 | 8.89° C | 33% | 1014.6 hPa | - | - | 572 W/m² | - |
| 1777450197 | 8.89° C | 33% | 1014.6 hPa | - | - | 530 W/m² | - |
| 1777449296 | 8.89° C | 31% | 1014.5 hPa | - | - | 489 W/m² | - |
| 1777448395 | 8.33° C | 32% | 1014.3 hPa | - | - | 452 W/m² | - |
| 1777447494 | 7.78° C | 33% | 1014.2 hPa | - | - | 413 W/m² | - |
| 1777446593 | 7.78° C | 38% | 1014.1 hPa | - | - | 368 W/m² | - |
| 1777445692 | 7.22° C | 43% | 1014 hPa | - | - | 322 W/m² | - |
| 1777444791 | 6.67° C | 44% | 1013.8 hPa | - | - | 279 W/m² | - |
| 1777443890 | 5.56° C | 47% | 1013.7 hPa | - | - | 47 W/m² | - |
| 1777442989 | 5° C | 50% | 1013.6 hPa | - | - | 45 W/m² | - |
| 1777442088 | 4.44° C | 53% | 1013.5 hPa | - | - | 45 W/m² | - |
| 1777441187 | 3.89° C | 54% | 1013.3 hPa | - | - | 42 W/m² | - |
| 1777440286 | 3.89° C | 56% | 1013.1 hPa | - | - | 40 W/m² | - |
| 1777439384 | 3.33° C | 56% | 1012.9 hPa | - | - | 37 W/m² | - |
| 1777438483 | 2.78° C | 58% | 1012.9 hPa | - | - | 34 W/m² | - |
| 1777437582 | 2.22° C | 60% | 1012.7 hPa | - | - | 30 W/m² | - |
| 1777436681 | 1.67° C | 62% | 1012.6 hPa | - | - | 26 W/m² | - |
| 1777435780 | 1.67° C | 64% | 1012.5 hPa | - | - | 20 W/m² | - |
| 1777434879 | 1.67° C | 64% | 1012.3 hPa | - | - | 12 W/m² | - |
| 1777433978 | 2.22° C | 63% | 1012.1 hPa | - | - | 6 W/m² | - |
* Rain since midnight (hover to see other rain measurements)
** Current wind speed in m/s (hover to see current wind gust speed)